This demonstration page uses our WeatherBlox Daily Observations layout. Learn more.

Left ArrowRight Arrow

Hourly Observations for June 19, 2017

Temp ( °F °C ) Dew Point ( °F °C ) Humidity (%) Winds ( mph kmh ) Pressure ( in mb ) Visibility ( mi km ) Precip ( " mm )
1:53 am 01:53 Clear 73 22.8 72 22.2 96 96 VRB 3 6 29.91 1013 10 16 0.00 0.00
2:53 am 02:53 Mostly Cloudy 73 22.8 72 22.2 96 96 Calm 29.91 1013 10 16 0.00 0.00
3:53 am 03:53 Clear 72 22.2 72 22.2 100 100 Calm 29.92 1013 10 16 0.00 0.00
4:53 am 04:53 Mostly Cloudy 72 22.2 72 22.2 100 100 Calm 29.94 1014 10 16 0.00 0.00
5:53 am 05:53 Cloudy 73 22.8 71 21.7 94 94 SW 5 7 29.94 1014 10 16 0.00 0.00
6:53 am 06:53 Sunny 73 22.8 71 21.7 94 94 SW 5 7 29.95 1014 10 16 0.00 0.00
7:53 am 07:53 Sunny 74 23.3 71 21.7 91 91 SW 5 7 29.96 1015 10 16 0.00 0.00
8:53 am 08:53 Sunny 74 23.3 72 22.2 94 94 Calm 29.98 1015 10 16 0.00 0.00
9:53 am 09:53 Sunny 75 23.9 72 22.2 90 90 SSW 5 7 29.99 1016 10 16 0.00 0.00
10:53 am 10:53 Mostly Sunny 78 25.6 72 22.2 82 82 W 7 11 29.99 1016 10 16 0.00 0.00
11:53 am 11:53 Mostly Sunny 81 27.2 72 22.2 74 74 WSW 8 13 29.98 1015 10 16 0.00 0.00
12:53 pm 12:53 Mostly Cloudy 85 29.4 73 22.8 68 68 VRB 7 11 29.98 1015 10 16 0.00 0.00
1:53 pm 13:53 Mostly Cloudy with Light Rain 77 25 72 22.2 85 85 NNW 5 7 29.99 1016 10 16 0.01 0.25
2:53 pm 14:53 Sunny 86 30 72 22.2 63 63 VRB 7 11 29.95 1014 10 16 0.00 0.03
3:53 pm 15:53 Partly Cloudy 86 30 72 22.2 63 63 S 7 11 29.93 1014 10 16 0.00 0.00
4:53 pm 16:53 Cloudy 86 30 72 22.2 63 63 S 7 11 29.92 1013 10 16 0.00 0.00
5:38 pm 17:38 Partly Cloudy with Nearby Thunderstorms 85 29.4 72 22.2 65 65 SW 6 9 29.94 1014 10 16 0.00 0.00
5:45 pm 17:45 Partly Cloudy with Thunderstorms 85 29.4 72 22.2 65 65 WSW 6 9 29.94 1014 10 16 0.00 0.00
5:53 pm 17:53 Partly Cloudy with Thunderstorms 84 28.9 72 22.2 67 67 WNW 5 7 29.94 1014 10 16 0.00 0.00
6:09 pm 18:09 Mostly Sunny 81 27.2 74 23.3 79 79 NW 3 6 29.94 1014 10 16 0.00 0.00
6:44 pm 18:44 Sunny with Nearby Thunderstorms 78 25.6 73 22.8 85 85 N 3 6 29.97 1015 10 16 0.00 0.00
6:53 pm 18:53 Sunny with Thunderstorms 78 25.6 73 22.8 85 85 NE 3 6 29.96 1015 10 16 0.00 0.00
7:37 pm 19:37 Mostly Cloudy 75 23.9 73 22.8 94 94 WNW 3 6 29.97 1015 10 16 0.00 0.03
7:53 pm 19:53 Partly Cloudy 75 23.9 72 22.2 90 90 Calm 29.97 1015 10 16 0.00 0.03
8:53 pm 20:53 Mostly Clear 75 23.9 73 22.8 94 94 Calm 29.99 1016 10 16 0.00 0.00
9:53 pm 21:53 Mostly Cloudy 75 23.9 73 22.8 94 94 Calm 30.00 1016 10 16 0.00 0.00
10:53 pm 22:53 Mostly Cloudy 75 23.9 74 23.3 96 96 Calm 30.02 1017 10 16 0.00 0.00
11:53 pm 23:53 Cloudy 75 23.9 73 22.8 94 94 S 5 7 30.04 1017 10 16 0.00 0.00

Powered by AerisWeather